Wind_Speed
32 33 34 35 36 36 37 36 37 37 39 41 42 41 40 41 43 44 44 44 44 44 45 47 47 47 48 49 51 51 52 54 55 56 57 59 59 59 60 61 62 61 60 59
32 33 35 36 36 36 37 37 38 38 39 42 42 41 39 40 42 43 44 44 44 44 44 45 46 46 46 47 48 50 50 51 53 54 55 57 58 58 59 61 62 62 61 60
34 35 36 36 37 37 36 38 39 40 41 41 43 41 38 39 40 43 44 44 45 44 43 44 44 44 43 44 45 46 48 49 51 53 54 56 58 59 59 61 62 63 63 61
35 35 36 37 37 38 37 39 41 41 42 42 44 45 39 40 41 42 43 44 44 42 41 41 41 41 41 42 43 44 46 47 49 51 53 54 56 57 58 60 62 62 63 62
36 36 36 36 37 38 39 40 42 43 43 44 43 46 42 41 41 41 41 41 41 40 40 39 38 39 40 40 40 42 43 44 46 48 50 51 53 54 55 58 59 60 61 63
37 37 37 37 37 39 40 41 43 44 44 45 44 45 43 41 41 40 40 39 39 38 38 37 36 37 38 38 39 40 42 44 44 47 48 51 52 53 55 56 57 57 59 61
38 38 38 38 38 40 40 41 44 46 46 45 44 45 43 41 41 40 38 37 37 37 37 36 36 36 35 36 37 38 39 41 43 46 47 48 50 52 53 55 56 56 57 58
41 40 39 39 39 41 42 42 43 46 47 46 44 44 42 41 40 38 37 36 35 36 36 35 35 34 34 35 36 37 39 40 41 43 46 46 48 50 51 53 53 55 57 58
42 42 41 40 41 41 42 42 43 46 47 47 45 43 42 40 39 38 36 35 34 35 35 35 34 33 34 34 34 35 37 39 40 42 45 45 47 49 50 52 52 53 56 57
43 44 42 42 42 42 42 43 44 44 47 48 47 44 42 40 39 37 36 36 36 35 35 34 33 31 32 33 34 34 36 38 39 41 43 44 45 47 49 49 50 52 55 55
44 45 44 43 42 43 43 43 43 45 46 48 49 45 42 40 39 37 36 36 36 35 35 34 32 32 32 32 33 34 34 36 37 39 40 41 43 46 47 47 47 51 54 54
44 46 45 44 43 43 43 43 43 44 46 47 49 46 40 40 39 38 38 37 35 35 34 34 33 32 31 31 31 32 33 35 37 38 39 40 42 44 47 48 47 50 52 53
45 46 46 46 44 43 43 43 43 44 45 46 47 46 41 40 39 38 38 37 36 35 33 33 32 31 31 30 30 31 32 33 35 36 38 40 41 42 46 48 47 47 49 53
46 46 46 46 44 44 44 43 43 44 45 46 46 45 40 38 38 38 38 37 36 35 33 32 31 30 30 28 29 31 31 32 34 35 37 39 40 42 45 46 46 46 50 52
47 48 47 46 44 44 45 44 43 44 45 46 45 44 40 37 38 38 37 36 36 35 33 31 29 28 28 27 28 29 30 31 34 35 35 37 39 42 44 45 45 46 48 51
47 48 48 47 45 45 46 44 43 44 44 45 44 42 39 38 37 37 36 35 34 33 32 30 29 29 28 27 27 28 30 31 33 34 35 36 38 39 42 45 46 46 46 48
47 48 48 47 45 46 46 42 42 42 41 42 43 41 39 39 37 37 36 35 33 32 31 29 29 29 28 27 27 28 29 31 32 33 35 35 36 38 39 42 45 45 46 47
47 46 47 48 47 47 44 42 41 41 40 40 41 40 39 38 37 36 35 33 31 30 29 29 29 28 28 27 27 28 29 30 31 32 33 36 37 38 38 40 44 45 45 45
46 46 46 47 48 48 43 41 41 42 41 40 40 39 38 37 37 35 34 33 31 30 30 30 29 29 27 27 28 27 28 29 30 31 34 36 37 37 38 40 42 44 46 45
46 45 45 46 46 46 43 41 42 43 42 40 39 38 38 38 36 33 33 32 31 31 31 30 29 28 27 26 27 28 28 30 31 32 34 37 38 37 38 39 42 43 45 46
46 45 45 44 45 45 42 42 43 43 43 41 39 38 38 37 36 35 33 32 31 31 30 30 29 28 27 26 27 28 28 30 31 32 34 36 37 38 37 38 41 43 43 45
45 45 44 43 45 44 42 42 42 43 42 42 40 39 39 37 35 34 33 32 31 30 29 29 29 29 28 27 27 28 28 30 31 32 33 35 37 38 38 38 39 41 43 45
44 43 43 44 44 42 41 42 42 43 43 42 41 39 38 37 35 34 33 32 31 30 30 29 29 28 28 28 27 28 29 30 31 33 34 35 36 37 38 38 38 41 42 43
44 43 44 44 42 41 42 42 43 43 43 41 41 39 38 37 35 34 33 32 31 31 31 30 29 28 27 28 27 28 29 30 32 33 34 34 35 36 37 38 38 40 42 43
43 43 44 44 42 43 43 43 43 43 43 42 41 40 38 37 35 33 32 32 31 30 30 30 29 28 27 27 27 28 29 30 32 33 34 34 35 36 37 39 40 41 42 43
42 43 44 44 43 45 43 43 43 42 42 41 40 38 37 36 35 33 32 31 30 29 29 30 29 28 27 27 27 28 29 30 32 33 34 35 35 36 38 39 41 41 42 43
Wind_Direction
309 309 308 307 305 303 301 301 302 302 302 299 298 299 299 296 291 288 284 283 282 281 278 275 273 268 264 260 258 254 250 246 244 242 241 239 237 236 235 233 232 232 231 231
309 309 309 308 307 304 303 303 304 304 304 303 301 300 300 297 294 290 287 285 284 283 280 277 273 268 264 261 258 254 250 245 243 241 240 238 237 236 234 233 231 231 230 230
309 310 309 309 309 306 305 306 306 306 306 306 304 301 300 298 296 293 290 288 286 285 282 278 274 270 265 261 258 254 249 244 242 241 239 238 236 234 233 231 230 230 230 229
310 310 309 309 309 307 306 306 307 308 308 309 308 306 304 301 298 295 293 290 287 286 283 279 276 273 266 262 257 253 248 244 241 241 238 237 235 233 233 231 230 230 230 229
310 310 310 310 309 308 307 307 307 307 308 308 310 307 309 307 303 299 296 294 289 286 284 281 278 274 268 263 256 252 247 242 241 239 238 236 234 232 231 230 228 229 230 229
308 309 309 309 308 308 308 307 306 306 307 309 311 309 311 310 306 302 298 296 293 287 285 282 280 275 269 263 256 253 248 243 241 240 239 236 233 232 231 229 227 227 228 227
305 307 307 307 307 308 308 308 308 307 308 310 311 309 312 310 307 305 301 297 294 289 286 284 282 276 268 263 259 254 248 244 242 240 238 236 234 232 232 229 227 227 226 226
304 305 306 307 308 309 309 308 308 308 308 309 309 308 311 310 307 306 302 298 294 290 285 285 285 276 268 264 260 254 249 246 243 240 237 236 234 231 231 229 228 227 225 225
302 303 305 306 308 309 309 308 307 306 305 306 308 309 309 309 306 305 303 299 294 290 288 287 284 276 269 264 259 255 250 247 244 240 237 235 233 229 229 229 228 226 224 223
301 301 303 306 307 309 309 308 307 306 306 306 308 310 312 311 307 304 301 297 294 291 289 287 283 277 270 265 260 255 251 248 245 241 238 235 232 229 226 226 226 225 222 221
300 300 301 303 306 307 307 307 306 304 303 304 306 310 313 310 307 304 300 296 293 290 288 285 281 276 269 263 259 254 251 247 243 240 237 233 230 227 224 223 224 223 221 221
300 300 300 301 303 305 305 305 305 303 303 302 303 308 311 308 305 302 299 296 294 290 286 282 279 275 268 262 259 255 249 244 241 238 235 232 230 227 223 222 222 222 221 221
298 298 300 300 302 303 303 304 303 302 301 302 302 306 309 305 303 300 297 295 294 292 288 282 278 274 268 262 257 253 248 244 240 237 234 232 230 225 222 220 219 221 221 220
296 296 297 299 301 300 300 302 301 300 301 300 301 303 305 303 300 296 294 293 292 292 290 283 279 275 269 264 256 251 248 244 239 235 232 230 229 225 221 218 219 220 220 219
295 295 297 297 297 297 297 300 300 299 300 299 301 301 303 300 296 294 292 293 292 292 289 282 278 274 269 265 257 252 249 244 238 235 231 229 226 223 221 219 219 218 219 219
295 296 297 296 296 295 296 300 300 298 298 299 300 301 300 295 294 294 293 292 291 290 288 284 277 272 270 265 258 251 248 244 239 234 230 228 226 224 223 221 219 217 218 218
295 296 297 296 295 293 296 301 298 297 298 298 299 301 297 294 293 292 291 290 289 286 285 283 279 274 268 263 256 250 246 242 238 233 229 227 227 225 223 221 219 217 217 219
295 295 295 295 294 292 301 300 298 296 297 298 298 298 297 295 293 291 290 289 287 285 283 280 278 274 268 261 255 250 245 239 233 233 231 228 228 225 223 221 219 216 217 219
292 293 293 294 294 295 298 300 298 296 297 299 298 297 296 295 293 290 288 286 285 283 281 279 277 274 269 261 252 246 243 239 235 234 231 227 225 224 223 221 218 216 217 218
291 291 291 292 294 295 299 298 296 296 298 299 297 296 295 294 291 289 286 284 281 280 280 277 276 274 269 261 252 246 244 239 235 232 229 227 227 225 222 219 215 214 214 216
289 289 289 291 292 294 298 296 296 296 299 298 297 296 296 294 291 287 284 281 280 278 277 275 274 273 268 262 254 248 246 241 234 231 230 229 229 226 221 217 213 210 211 213
288 288 289 290 290 295 296 294 294 296 296 296 295 295 295 293 290 287 284 282 280 277 275 273 271 270 267 261 254 249 245 240 235 230 228 227 228 226 221 217 214 212 212 213
285 287 287 288 290 292 292 292 293 294 294 294 294 293 293 292 290 286 284 281 279 277 274 273 271 268 264 260 254 247 243 239 235 230 226 226 227 224 220 216 215 213 212 213
284 286 286 287 289 289 290 291 292 293 293 293 292 292 290 289 288 286 283 280 278 276 274 272 270 267 262 257 253 248 241 237 234 229 226 225 224 221 219 216 213 212 212 212
284 286 285 285 287 287 289 290 291 291 292 292 291 290 289 287 286 285 282 280 278 275 273 271 268 265 261 256 251 247 242 238 233 229 225 222 222 220 217 213 210 210 211 211
285 284 284 285 286 287 289 289 289 291 291 291 290 288 287 285 282 281 280 280 277 273 271 269 267 263 258 254 251 246 242 237 233 230 224 221 220 218 215 212 211 209 208 208
Height
5707 5704 5698 5694 5689 5685 5681 5678 5675 5672 5666 5662 5660 5657 5654 5649 5644 5640 5637 5635 5633 5632 5630 5628 5626 5626 5626 5627 5627 5630 5632 5636 5640 5645 5651 5657 5663 5670 5677 5684 5692 5698 5706 5713
5700 5695 5691 5685 5681 5676 5672 5668 5665 5663 5657 5652 5649 5647 5644 5638 5632 5628 5625 5622 5620 5619 5616 5614 5613 5611 5611 5611 5612 5614 5617 5620 5624 5629 5635 5641 5647 5654 5662 5669 5676 5684 5692 5699
5691 5687 5682 5677 5672 5668 5664 5659 5655 5651 5647 5643 5637 5637 5636 5629 5622 5617 5613 5609 5606 5604 5603 5601 5600 5598 5597 5597 5598 5599 5602 5606 5610 5614 5620 5626 5631 5638 5645 5653 5661 5670 5678 5685
5683 5679 5674 5669 5664 5659 5656 5651 5646 5641 5636 5633 5628 5621 5626 5618 5611 5605 5601 5598 5595 5593 5591 5589 5587 5585 5584 5584 5584 5586 5589 5592 5596 5600 5606 5611 5617 5624 5631 5640 5648 5656 5664 5673
5674 5670 5665 5661 5656 5650 5646 5641 5637 5632 5626 5623 5619 5610 5613 5607 5601 5595 5590 5586 5583 5581 5579 5577 5575 5573 5572 5571 5572 5574 5576 5579 5583 5588 5593 5598 5603 5611 5618 5625 5633 5642 5650 5660
5666 5661 5657 5653 5648 5642 5637 5632 5627 5622 5618 5614 5610 5602 5600 5596 5589 5584 5580 5575 5571 5570 5568 5566 5564 5562 5561 5561 5561 5563 5564 5567 5571 5576 5580 5585 5591 5598 5604 5612 5620 5629 5637 5647
5658 5654 5649 5644 5639 5634 5628 5623 5616 5611 5607 5604 5599 5592 5591 5585 5578 5573 5569 5565 5561 5559 5558 5556 5554 5552 5551 5551 5551 5552 5553 5557 5560 5564 5568 5573 5578 5585 5592 5600 5608 5616 5625 5634
5647 5645 5641 5635 5630 5625 5619 5614 5608 5601 5596 5592 5589 5583 5583 5576 5569 5563 5558 5554 5552 5550 5548 5546 5544 5541 5541 5540 5540 5541 5543 5545 5549 5552 5556 5561 5566 5572 5580 5588 5596 5604 5613 5622
5635 5634 5631 5626 5620 5615 5609 5605 5599 5591 5584 5580 5578 5575 5573 5567 5560 5554 5550 5545 5542 5540 5538 5535 5533 5532 5531 5530 5530 5531 5532 5534 5537 5540 5544 5549 5554 5561 5569 5577 5585 5592 5601 5611
5625 5622 5621 5616 5611 5606 5600 5595 5589 5581 5574 5568 5566 5565 5562 5557 5550 5546 5541 5537 5534 5531 5528 5525 5523 5522 5521 5521 5521 5522 5522 5524 5526 5530 5534 5538 5543 5550 5558 5566 5574 5582 5591 5600
5614 5611 5609 5606 5602 5597 5591 5586 5579 5572 5566 5559 5553 5557 5554 5547 5541 5536 5532 5528 5525 5522 5519 5516 5514 5513 5512 5511 5511 5512 5513 5515 5517 5520 5524 5528 5533 5540 5547 5555 5563 5572 5581 5590
5603 5599 5597 5595 5592 5586 5581 5577 5570 5564 5558 5550 5543 5546 5545 5538 5531 5526 5522 5519 5515 5512 5509 5507 5504 5503 5502 5502 5502 5503 5504 5506 5508 5511 5515 5519 5525 5531 5538 5546 5554 5563 5572 5581
5593 5589 5585 5583 5583 5576 5571 5567 5560 5554 5548 5542 5535 5535 5534 5527 5521 5517 5512 5509 5506 5503 5500 5497 5495 5494 5493 5492 5493 5494 5496 5497 5500 5503 5507 5511 5516 5522 5529 5538 5547 5555 5564 5573
5580 5578 5576 5573 5570 5564 5559 5557 5551 5544 5537 5531 5528 5524 5524 5517 5511 5507 5503 5499 5496 5493 5491 5488 5486 5485 5484 5484 5484 5486 5487 5489 5491 5494 5498 5503 5508 5515 5522 5530 5538 5547 5556 5565
5569 5566 5563 5561 5558 5553 5549 5546 5541 5534 5528 5521 5518 5514 5513 5508 5502 5498 5494 5490 5487 5484 5482 5479 5478 5477 5476 5477 5477 5478 5479 5481 5483 5486 5490 5496 5501 5508 5515 5522 5530 5539 5548 5557
5558 5553 5550 5548 5547 5540 5536 5535 5530 5524 5518 5512 5506 5504 5502 5496 5492 5488 5485 5481 5478 5475 5473 5471 5470 5469 5469 5469 5470 5471 5472 5474 5476 5479 5483 5488 5494 5500 5507 5514 5522 5531 5539 5548
5547 5542 5537 5534 5533 5527 5525 5526 5519 5513 5509 5503 5496 5495 5490 5486 5483 5479 5476 5472 5469 5467 5465 5463 5462 5461 5461 5461 5462 5463 5465 5467 5469 5472 5477 5482 5487 5493 5500 5507 5515 5524 5532 5541
5535 5531 5525 5521 5519 5513 5518 5513 5507 5501 5498 5493 5487 5483 5479 5476 5472 5469 5466 5463 5460 5458 5457 5455 5454 5453 5453 5454 5454 5456 5457 5459 5462 5466 5469 5475 5480 5486 5493 5500 5508 5516 5524 5533
5524 5519 5513 5508 5503 5500 5505 5501 5494 5488 5487 5484 5477 5473 5469 5465 5462 5460 5456 5453 5452 5450 5448 5447 5445 5445 5445 5446 5447 5449 5450 5452 5455 5459 5463 5468 5474 5480 5486 5494 5501 5508 5517 5525
5512 5507 5503 5497 5491 5488 5493 5488 5481 5477 5475 5473 5467 5463 5459 5455 5452 5451 5447 5445 5443 5441 5440 5438 5437 5437 5437 5438 5439 5441 5443 5445 5448 5452 5456 5461 5466 5472 5479 5485 5493 5500 5508 5517
5499 5495 5491 5486 5479 5477 5481 5475 5470 5466 5464 5460 5456 5452 5448 5445 5442 5440 5438 5436 5434 5433 5431 5430 5429 5428 5428 5429 5431 5433 5435 5438 5441 5445 5449 5454 5459 5464 5471 5477 5485 5493 5501 5510
5486 5482 5479 5475 5469 5470 5468 5462 5459 5456 5451 5448 5444 5441 5438 5435 5432 5429 5427 5426 5424 5423 5422 5421 5420 5420 5420 5421 5422 5424 5427 5430 5433 5437 5441 5446 5451 5456 5463 5470 5478 5485 5494 5502
5473 5471 5467 5464 5462 5460 5455 5450 5447 5443 5440 5437 5433 5430 5427 5424 5421 5419 5417 5415 5414 5413 5413 5412 5411 5411 5412 5412 5413 5416 5419 5421 5425 5429 5434 5438 5443 5449 5456 5463 5470 5478 5486 5495
5461 5458 5453 5450 5450 5447 5442 5438 5435 5431 5428 5425 5422 5419 5416 5413 5411 5409 5407 5406 5404 5404 5403 5402 5402 5402 5403 5403 5404 5407 5409 5412 5416 5421 5426 5430 5436 5441 5448 5456 5463 5471 5479 5488
5449 5444 5440 5437 5437 5433 5431 5427 5423 5420 5416 5413 5411 5408 5405 5402 5400 5398 5397 5396 5394 5394 5393 5392 5392 5393 5393 5394 5396 5398 5400 5404 5408 5412 5417 5423 5428 5434 5441 5448 5456 5464 5473 5481
5437 5432 5427 5426 5425 5420 5419 5416 5412 5408 5405 5402 5399 5396 5394 5391 5389 5388 5387 5385 5384 5384 5383 5383 5383 5384 5385 5385 5387 5389 5391 5394 5398 5403 5409 5415 5421 5427 5434 5441 5449 5457 5465 5474